Latest METARs, TAFs and NOTAMs for LIRQ


---------------------------------------------------------------------------
	(OBSERVATIONS)
LIRQ 280120Z 20003KT CAVOK 22/17 Q1007=
LIRQ 280050Z 00000KT CAVOK 22/17 Q1007=
LIRQ 280020Z 21003KT 170V290 CAVOK 23/17 Q1007=
LIRQ 272350Z VRB01KT CAVOK 23/17 Q1007=
LIRQ 272320Z VRB02KT CAVOK 24/17 Q1007=
LIRQ 272250Z 00000KT CAVOK 24/17 Q1007=
---------------------------------------------------------------------------
	(FC)
Sorry, FC For LIRQ Not Found
---------------------------------------------------------------------------
	(TERMINAL AREA FORECAST)
LIRQ 272300Z 2800/2824 VRB05KT 9999 SCT030
    BECMG 2807/2810 22015G25KT
    TEMPO 2812/2820 4000 TSRA=
---------------------------------------------------------------------------
	(NOTAMS)


LIRQ A3771/17 FIRENZE VORTAC 'FRZ' FREQ 115.20MHZ CH99X UNSERVICEABLE
    REF AIP AD LIRQ 1-7. 12 JUN 09:11 2017 UNTIL 08 SEP 10:00
    2017 ESTIMATED. CREATED: 12 JUN 09:11 2017

LIRQ B1420/17 REF AIP AD 2 LIRQ 6-1 AND 6-3/4 STANDARD INSTRUMENT
    DEPARTURE PROCEDURE RWY23 - BALUK 7B MODIFY REMARK AS FLW:
    MINIMUM CLIMB GRADIENT UNTIL REACHING FL120: 389FT/NM (6.4
    PER CENT). IAS MAX 210KT UNTIL ESTABLISHING ON RDL 305 PRT
    VOR. - BIKTU 5A (ATC DISCRETION) MODIFY DESCRIPTION AS FLW:
    AT 7 NM PRT DME (INT RDL 171 FRZ VORTAC) TURN RIGHT (IAS
    MAX 210KT) ON HEADING 080DEG TO JOIN AND FOLLOW RDL 050 PRT
    VOR BOUND TO BIKTU. - GAVRA 5A MODIFY DESCRIPTION AS FLW:
    AT 7 NM PRT DME (INT RDL 171 FRZ VORTAC) TURN RIGHT (IAS
    MAX 210KT) BOUND TO PRT VOR. LEAVE PRT VOR ON RDL 092 PRT
    VOR BOUND TO GAVRA. MODIFY REMARK AS FLW: MINIMUM CLIMB GRADIENT
    UNTIL PASSING 5000FT: 389FT/NM (6.4 PER CENT). IAS MAX 210KT
    UNTIL PRT VOR. - KUGIX 7A MODIFY REMARK AS FLW: MINIMUM CLIMB
    GRADIENT UNTIL PASSING 5000FT: 389FT/NM (6.4 PER CENT). IAS
    MAX 210KT UNTIL PRT VOR. - OKMAP 6A MODIFY DESCRIPTION AS
    FLW: AT 7 NM PRT DME (INT RDL 171 FRZ VORTAC) TURN RIGHT
    (IAS MAX 210KT) ON HEADING 062DEG TO JOIN RDL 017 PRT VOR
    BOUND TO OKMAP. 28 MAR 00:00 2017 UNTIL PERM. CREATED: 21
    MAR 14:02 2017

LIRQ B1422/17 REF AIP AD 2 LIRQ 6-5 'VISUAL INITIAL CLIMB RWY
    05' REFERRED TO FLW SID: - BIKTU 5A (ATC DISCRETION) - GAVRA
    5A - KUGIX 7A - OKMAP 6A ON PLAN VIEW MODIFY SPEED RESTRICTION
    TO READ IAS MAX 210KT INSTEAD OF 185KT. 28 MAR 00:00 2017
    UNTIL PERM. CREATED: 21 MAR 14:35 2017

LIRQ B1784/17 REF AIP AD 2 LIRQ 2-5 'AIRCRAFT PARKING DOCKING
    CHART' BOX 'STAND NUMBER - MAX ACFT ALLOWED' ACFT STANDS
    201, 203 AND 206 MAX ACFT ALLOWED CHG TO READ: - 201 - GLEX/GLF5/E190
    - 203 - GLEX/GLF5/A318/A319/E190 - 206 - GLEX/GLF5/A318/A319/E190.
    07 APR 18:18 2017 UNTIL PERM. CREATED: 07 APR 18:18 2017

LIRQ B2184/17 REF AOC TYPE B NR RQ 3/3 NEW OBSTACLE ERECTED BUILDING
    PENETRATING TAKE-OFF CLIMB SURFACE RWY05 (IN CURVE) POINTS
    PSN COORD (WGS-84): - 434929.7N 0111314.4E - 434928.3N 0111316.0E
    - 434929.2N 0111317.1E - 434930.4N 0111315.5E - 434929.7N
    0111314.4E MAX ELEV AGL 16.6M/54.5FT MAX ELEV AMSL 75.1M/246.4FT
    ICAO SIGNAL UNPROVIDED. 03 MAY 08:27 2017 UNTIL PERM. CREATED:
    03 MAY 08:27 2017

LIRQ B2342/17 TRIGGER NOTAM-PERM AIP AIRAC AMDT 5/17 EFFECTIVE
    DATE 22 JUN 2017 FIRENZE/PERETOLA AD COMPLETE REVIEW OF INSTRUMENT
    APPROACH PROCEDURE AND IMPLEMENTATION OF THE FOLLOWING ONES:
    - RNAV (GNSS) Z RWY 05 CAT A/B/C - RNAV (GNSS) Y RWY 05 CAT
    A/B/C AIRAC IS POSTED AND AVBL ON WEBSITE WWW.ENAV.IT. 22
    JUN 00:00 2017 UNTIL 05 JUL 23:59 2017. CREATED: 11 MAY 14:07
    2017

LIRQ B2547/17 EDGE LIGHTS ON APRON 100, 200 AND 300 UNSERVICEABLE
    DUE TO WIP REF AIP AD 2 LIRQ 2-5. 22 MAY 22:05 2017 UNTIL
    18 AUG 21:59 2017 ESTIMATED. CREATED: 22 MAY 22:05 2017

LIRQ B2905/17 TRIGGER NOTAM-PERM AIP AIRAC AMDT 6/17 EFFECTIVE
    DATE 20 JUL 2017 FIRENZE/PERETOLA AD PUBLICATION OF NEW HOT
    SPOT MAP AIRAC IS POSTED AND AVBL ON WEBSITE WWW.ENAV.IT.
    20 JUL 00:00 2017 UNTIL 02 AUG 23:59 2017. CREATED: 08 JUN
    14:02 2017

LIRQ B2969/17 INITIAL CLIMB PROCEDURE/STANDARD INSTRUMENT DEPARTURE
    PROCEDURE RWY 23 AND VISUAL INITIAL CLIMB PROCEDURE RWY 05
    FLW SID SUSPENDED: - BALUK 7A - FRZ 5A - MAREL 8A DUE TO
    FRZ VORTAC UNSERVICEABLE REF AIP AD 2 LIRQ 6-1/3/4/5/7. 13
    JUN 07:40 2017 UNTIL 08 SEP 10:00 2017 ESTIMATED. CREATED:
    13 JUN 07:40 2017

LIRQ B2970/17 INITIAL CLIMB PROCEDURE/STANDARD INSTRUMENT DEPARTURE
    PROCEDURE RWY 23 AND VISUAL INITIAL CLIMB PROCEDURE/STANDARD
    INSTRUMENT DEPARTURE PROCEDURE RWY 05 (TO BE USED IN CASE
    OF PRT VOR UNSERVICEABLE) FLW SID SUSPENDED: - FRZ 5P - KUGIX
    5C - BALUK 7C - KUGIX 5B DUE TO FRZ VORTAC UNSERVICEABLE.
    REF AIP AD 2 LIRQ 6-9/11 AND 6-13/15. 13 JUN 07:43 2017 UNTIL
    08 SEP 10:00 2017 ESTIMATED. CREATED: 13 JUN 07:44 2017

LIRQ B2972/17 STANDARD INSTRUMENT ARRIVAL PROCEDURE FLW STAR
    SUSPENDED: - FRZ 1D - FRZ 2X - MAREL 1D - MAREL 2X DUE TO
    FRZ VORTAC UNSERVICEABLE REF AIP AD 2 LIRQ 4-13/15. 13 JUN
    07:47 2017 UNTIL 08 SEP 10:00 2017 ESTIMATED. CREATED: 13
    JUN 07:47 2017

LIRQ B3270/17 GLIDE PATH (ILS) RWY05 UNSERVICEABLE DUE TO MAINT.
    REF AIP AD 2 LIRQ 1-8. 03 JUL 04:00 2017 UNTIL 03 JUL 16:00
    2017. CREATED: 26 JUN 10:45 2017

LIRQ B3271/17 LOCALIZER (ILS) RWY05 UNSERVICEABLE DUE TO MAINT.
    REF AIP AD 2 LIRQ 1-7. 24 JUL 04:00 2017 UNTIL 24 JUL 16:00
    2017. CREATED: 26 JUN 10:45 2017

LIRQ B3298/17 RWY 05/23 CLOSED TO ALL TRAFFIC DUE TO WIP REF
    AIP AD 2 LIRQ 2-1. DAILY 2200-0300, 27 JUN 22:00 2017 UNTIL
    01 JUL 03:00 2017. CREATED: 27 JUN 13:38 2017

---------------------------------------------------------------------------